Weather in Medvedevo

Russia / Lipetsk Oblast     53°04′28″N   38°49′37″E
temp.,
°C
wind,
m/s
gust,
m/s
humid.,
%
clouds,
%
prec.,
mm/h
press.,
hPa
HPBL,
m
12 may, wed
wed1200:00+6ese34850 0.0 102663
03:00+5e339159 0.0 102645
06:00+6ene36872 0.0 1026168
09:00+12ene466686 0.0 1024643
12:00+12ene4475100 0.3 1022817
15:00+11ne4380100 0.5 1020507
18:00+13e457225 0.0 1019926
21:00+9e410905 0.0 1020219
13 may, thu
thu1300:00+9e51389100 0.0 1019305
03:00+10ese61585100 0.0 1018497
06:00+10ese51190100 0.1 1018344
09:00+14ese5876100 0.1 1017436
12:00+18ese56595 0.0 10161222
15:00+18sse5964100 0.4 10141332
18:00+13w248019 0.9 1016341
21:00+11nw009014 1.0 101710
14 may, fri
fri1400:00+10ese229198 0.0 101713
03:00+11e3492100 0.0 101885
06:00+11e3793100 0.0 1017186
09:00+18ese587799 0.0 1016469
12:00+22se6862100 0.0 10151325
15:00+24se6115767 0.1 10131997
18:00+22sse5127289 1.1 1012400
21:00+18se41188100 1.6 1012181
15 may, sat
sat1500:00+17sse3593100 1.8 101277
03:00+16s2392100 2.2 101239
06:00+15e469293 2.8 1011119
09:00+16ese3694100 5.3 1012194
12:00+22se59685 0.8 10111054
15:00+22s79655 1.4 10111332
18:00+20ssw597256 0.4 1011502
21:00+16sw498497 0.4 1012163
16 may, sun
sun1600:00+14sw39938 0.0 1012225
03:00+12wsw359528 0.0 1014117
06:00+13wnw26910 0.0 1015175
09:00+17wnw23640 0.0 1016550
12:00+20wnw22540 0.0 10161095
15:00+22wnw014927 0.0 10161323
18:00+21ne1160100 0.0 1016187
21:00+16ne337297 0.0 101631